Weather in Shyrokyne

Ukraine / Donetsk Region     47°05′58″N   37°49′17″E
temp.,
°C
wind,
m/s
gust,
m/s
humid.,
%
clouds,
%
prec.,
mm/h
press.,
hPa
HPBL,
m
17 october, sun
sun1700:00+14ne4564100 0.0 101451
03:00+13nne5759100 0.0 101495
06:00+13ne5659100 0.0 1015122
09:00+13nne5657100 0.0 1015164
12:00+15ene335450 0.0 1015116
15:00+16nnw125858 0.0 1014157
18:00+16n335179 0.0 101421
21:00+14nne465961 0.0 101566
18 october, mon
mon1800:00+13n466344 0.0 101594
03:00+13n456380 0.0 101673
06:00+13n4664100 0.0 1016115
09:00+13n4563100 0.0 1017122
12:00+13n2364100 0.0 101754
15:00+14w23625 0.0 1017125
18:00+14wsw556787 0.0 101766
21:00+13nnw466027 0.0 1018109
19 october, tue
tue1900:00+12nw4659100 0.0 1018254
03:00+11wnw5760100 0.0 1018314
06:00+10wnw5761100 0.0 1018423
09:00+10w5660100 0.0 1018366
12:00+11w6759100 0.0 1018795
15:00+11wnw10973100 0.4 10181297
18:00+10wnw887392 1.1 1019946
21:00+9n7116732 1.4 10221019
20 october, wed
wed2000:00+8nw710550 0.0 1023610
03:00+7nw79620 0.0 1025481
06:00+6nw69680 0.0 1026472
09:00+6nnw78695 0.0 1028621
12:00+8nw565213 0.0 10281370
15:00+10nw45435 0.0 10281507
18:00+10nw344199 0.0 10281203
21:00+10nnw1140100 0.0 1028461
21 october, thu
thu2100:00+9w2344100 0.0 1028501
03:00+10w344737 0.0 1028637
06:00+9wsw4562100 0.0 1027685
09:00+10ssw665977 0.0 1027845
12:00+10ssw7764100 0.0 1027835
15:00+10ssw66629 0.0 1025586
18:00+10ssw566412 0.0 1024462
21:00+11ssw6761100 0.0 1022472